Wind_Speed
15 14 13 13 12 11 11 10 10 9 8 8 8 8 8 8 8 9 9 10 10 10 11 12 12 12 13 13 13 13 13 14 14 15 15 16 17 17 17 17 17 17 18
16 16 15 14 13 13 13 12 11 11 10 10 10 10 10 10 10 11 11 12 12 13 13 13 13 13 14 14 15 15 15 16 16 17 17 18 18 18 18 19 19 19 19
17 17 17 16 15 14 14 14 13 13 12 12 11 11 12 12 12 13 13 13 14 14 14 15 15 15 16 16 16 17 17 18 18 18 19 19 19 20 20 20 20 21 21
18 18 18 17 16 16 15 15 15 14 14 14 13 13 13 13 14 14 14 15 15 15 15 16 16 17 17 18 18 19 19 19 20 20 20 20 21 21 21 21 21 22 22
19 19 19 19 18 18 17 16 16 15 15 15 15 15 14 15 15 15 15 16 16 16 17 17 17 18 19 19 20 20 21 21 21 21 21 22 22 22 22 23 23 23 24
21 20 20 20 19 19 18 18 17 17 17 16 16 16 16 16 16 16 16 16 17 17 18 18 19 20 20 20 21 21 21 22 22 22 22 23 23 23 24 24 25 25 25
22 21 21 21 21 20 20 19 19 18 18 17 17 17 17 17 17 17 17 17 18 18 19 19 20 20 21 21 21 22 22 23 23 23 24 24 25 25 26 26 26 27 27
23 23 23 22 22 21 21 20 20 19 19 19 18 19 19 18 18 18 18 19 19 19 20 20 20 21 21 22 22 23 23 24 24 25 25 26 26 26 27 27 28 28 29
24 24 23 23 23 23 22 21 21 20 20 20 20 20 20 20 20 20 20 20 20 21 21 21 21 22 22 23 23 24 24 25 25 26 26 27 27 28 28 29 29 30 30
25 25 24 24 24 23 23 22 22 22 22 22 22 21 21 21 21 21 21 21 21 22 22 22 22 23 23 24 24 25 25 26 26 27 27 27 27 28 29 30 30 31 31
26 26 25 25 25 24 24 23 23 23 23 23 23 22 23 22 22 22 22 23 23 23 23 23 24 24 25 25 25 26 26 26 27 27 28 28 29 30 30 31 32 32 32
27 26 26 25 25 25 24 24 24 24 24 24 24 24 24 23 23 23 23 24 24 24 24 24 24 25 26 26 26 26 27 27 28 29 30 31 32 32 33 34 34 34 35
28 27 26 26 26 25 25 25 25 25 25 25 24 24 24 24 24 24 24 24 25 25 25 25 25 26 26 27 27 28 29 30 31 32 33 33 34 34 35 36 36 37 37
28 28 27 27 27 26 26 26 26 26 25 25 25 25 25 25 25 25 25 25 25 26 26 26 26 27 28 28 29 30 31 32 33 34 34 35 36 36 37 37 37 38 39
29 29 28 28 27 26 26 26 26 26 26 26 26 26 26 26 26 26 26 26 26 26 26 27 28 29 29 29 30 31 32 33 34 35 36 36 37 37 38 38 39 40 40
30 30 29 29 28 27 27 26 26 26 26 26 26 26 26 27 27 27 27 27 27 27 28 28 29 29 30 31 32 33 34 35 35 36 37 38 38 39 40 41 41 42 43
31 31 31 30 30 29 28 28 27 27 27 26 27 27 27 28 28 28 28 28 28 29 29 29 30 31 31 32 33 34 35 36 37 38 38 39 40 41 42 43 44 45 46
32 31 31 30 30 29 29 28 28 28 28 28 28 28 28 28 28 28 28 29 30 30 30 31 32 33 33 34 35 36 37 38 39 40 40 41 42 43 45 46 47 47 48
32 31 30 30 30 29 29 29 29 29 28 28 28 29 28 28 29 29 30 30 31 31 32 33 34 35 35 36 37 37 39 40 40 41 42 43 44 46 47 48 49 50 49
32 31 31 31 30 30 29 29 29 29 29 29 29 29 29 29 30 30 31 31 32 33 34 34 36 37 37 38 39 39 40 42 42 43 44 45 46 48 49 49 49 49 49
33 32 32 32 32 31 30 30 30 30 30 30 31 30 30 30 31 31 32 33 33 34 35 36 37 38 39 40 41 41 42 43 44 45 46 47 48 49 49 49 50 49 49
33 33 33 33 33 33 32 32 32 32 32 31 31 31 31 32 32 33 33 34 35 36 37 38 39 39 40 42 43 44 44 44 45 46 48 49 49 50 50 50 50 50 51
34 34 34 34 34 34 34 34 33 33 33 33 33 33 33 33 34 34 35 36 37 37 38 39 40 41 41 43 44 46 47 47 47 47 48 48 49 50 51 51 51 52 53
35 35 35 35 35 35 34 34 34 34 34 34 34 34 35 35 35 36 37 38 38 39 39 40 41 42 43 44 46 47 49 50 50 49 48 48 49 50 51 52 53 54 56
37 37 36 36 36 35 35 35 35 35 35 35 36 36 36 37 37 38 38 39 39 40 40 41 42 44 45 46 47 49 50 51 51 50 48 48 49 51 52 54 55 56 57
38 38 37 37 36 36 36 36 36 36 36 36 37 38 38 38 39 39 40 40 41 41 42 43 44 45 47 48 49 50 51 51 50 51 50 50 51 52 53 54 55 55 56
Wind_Direction
252 252 254 256 256 257 258 257 260 260 261 264 269 273 278 281 285 288 290 290 291 291 292 292 293 293 294 294 295 295 295 296 297 297 297 296 297 297 297 297 297 297 296
252 253 254 255 255 256 257 256 259 260 260 261 265 269 273 277 281 283 285 286 288 289 289 290 290 290 291 292 293 293 294 294 295 295 295 295 295 295 295 295 296 296 296
250 251 252 253 254 255 256 257 258 259 260 260 262 265 270 275 279 281 283 284 285 287 288 289 289 290 290 290 292 293 294 294 293 294 295 295 294 295 295 295 295 295 295
249 248 250 251 253 254 256 257 258 259 260 261 262 264 267 272 277 280 282 283 283 285 287 287 288 289 289 290 291 292 293 293 293 294 294 294 294 294 295 296 296 296 295
249 248 249 251 253 254 256 256 258 259 261 261 261 263 267 271 274 277 280 281 282 283 285 286 287 288 288 289 290 291 292 292 293 293 293 293 294 294 294 295 295 296 295
249 249 250 251 253 255 256 257 258 259 260 260 261 264 268 270 272 275 278 280 281 281 282 284 286 287 288 289 290 290 291 291 292 292 293 293 293 293 293 294 294 295 294
249 248 249 251 253 255 256 258 258 259 259 260 262 264 268 270 272 275 278 279 281 282 283 283 285 287 287 288 289 290 291 291 291 292 293 293 293 293 293 293 294 294 294
248 249 250 251 253 254 256 257 257 258 259 261 263 266 268 270 273 275 278 279 280 282 283 284 285 286 287 288 289 290 290 291 292 292 292 293 293 293 293 293 293 294 294
248 249 250 251 252 254 255 256 257 258 259 262 264 267 269 271 273 275 277 279 280 282 283 284 285 287 288 289 290 290 291 291 292 293 293 293 293 293 293 294 294 294 294
247 248 249 250 252 253 254 255 257 258 260 262 265 267 269 271 273 275 277 278 280 281 282 283 285 286 288 289 290 290 291 291 292 293 293 293 293 293 294 294 294 294 293
246 247 248 249 251 252 253 254 256 258 260 262 265 267 269 271 273 274 276 278 279 281 282 283 284 286 288 289 290 291 292 292 293 293 293 293 293 294 294 294 294 293 292
246 247 247 249 250 252 253 254 256 258 259 262 264 266 268 271 272 274 276 278 279 280 281 283 285 286 288 289 290 290 291 292 293 294 294 294 294 293 293 293 292 291 291
245 246 247 248 250 251 253 254 256 258 259 261 264 266 268 271 273 274 276 278 279 280 281 283 284 286 288 289 290 291 291 292 293 294 294 294 294 294 293 293 292 291 291
243 245 246 248 250 251 252 254 256 258 259 261 264 266 269 271 273 275 276 278 280 281 281 282 284 286 287 289 290 291 292 293 293 293 293 294 294 294 294 293 293 292 292
242 244 246 247 249 250 252 254 255 257 259 261 264 266 269 271 273 275 277 278 279 280 282 283 285 286 287 288 290 291 292 293 294 294 294 294 294 294 294 294 293 293 293
242 243 244 246 247 248 251 254 257 259 260 262 264 266 269 271 274 276 277 278 279 280 282 284 285 287 288 289 291 292 293 293 294 294 295 295 295 295 294 294 293 293 293
241 243 244 245 247 249 251 254 257 259 260 261 263 266 269 272 274 275 276 278 279 280 282 283 285 287 289 290 291 292 293 294 294 295 295 295 295 295 294 294 294 293 293
241 242 244 246 247 249 251 253 256 258 260 261 264 267 270 272 274 275 276 278 279 280 282 283 285 287 288 290 291 292 293 294 295 295 295 296 296 295 295 295 294 294 294
240 242 244 245 247 249 251 254 256 258 260 262 264 267 270 272 274 275 277 278 279 280 282 284 285 287 288 290 291 293 293 294 295 295 295 296 296 296 295 295 295 295 295
239 241 243 245 247 249 251 254 257 258 260 262 265 268 270 272 274 276 277 279 280 281 283 284 286 287 289 290 292 293 294 294 294 295 295 295 296 296 296 296 296 296 295
240 242 244 246 248 250 252 255 257 258 260 262 265 268 270 272 275 276 277 279 280 282 283 285 286 288 289 290 291 292 293 294 294 295 295 295 296 296 297 298 297 296 295
241 243 244 246 249 251 253 255 257 259 261 263 266 269 271 273 275 277 278 280 281 283 284 285 287 288 290 291 292 293 293 293 294 295 295 295 296 296 297 298 298 297 296
242 244 246 248 250 251 253 255 257 259 261 263 266 269 271 274 276 278 280 281 283 284 285 286 287 289 290 292 293 294 294 294 295 295 295 295 296 297 297 297 297 297 297
243 245 246 249 250 251 253 255 257 259 261 263 266 269 272 274 276 279 281 282 284 285 285 286 288 290 291 293 294 295 296 296 296 296 296 296 297 298 298 298 297 297 298
243 245 247 249 250 252 254 255 257 259 262 264 267 270 272 274 276 279 281 282 284 285 286 287 289 291 292 294 295 296 297 298 297 297 297 296 297 298 298 299 299 298 299
244 246 248 249 251 253 254 256 258 260 262 265 268 270 272 275 277 279 281 282 284 285 286 288 290 291 293 294 295 296 297 298 297 297 297 297 298 298 299 300 300 299 300
Height
5856 5857 5858 5859 5860 5861 5862 5863 5863 5864 5865 5865 5866 5867 5867 5867 5868 5868 5868 5869 5869 5869 5869 5869 5869 5869 5869 5869 5869 5868 5868 5868 5867 5867 5866 5866 5865 5864 5864 5863 5862 5862 5861
5854 5855 5856 5857 5858 5859 5860 5861 5861 5862 5863 5864 5864 5865 5865 5866 5866 5866 5866 5867 5867 5867 5867 5867 5867 5867 5867 5867 5866 5866 5866 5866 5865 5864 5864 5863 5863 5862 5861 5860 5860 5859 5858
5851 5852 5853 5854 5855 5856 5857 5858 5859 5860 5861 5861 5862 5863 5863 5864 5864 5864 5864 5865 5865 5865 5865 5865 5865 5865 5865 5864 5864 5864 5863 5863 5862 5862 5861 5860 5860 5859 5858 5857 5857 5856 5855
5848 5849 5850 5852 5853 5854 5855 5856 5856 5857 5858 5859 5859 5860 5861 5861 5862 5862 5862 5862 5862 5862 5862 5862 5862 5862 5862 5861 5861 5861 5860 5860 5859 5859 5858 5857 5857 5856 5855 5854 5853 5852 5852
5845 5846 5847 5848 5850 5851 5852 5853 5854 5855 5855 5856 5857 5857 5858 5858 5859 5859 5859 5860 5860 5860 5860 5859 5859 5859 5859 5858 5858 5858 5857 5857 5856 5855 5854 5854 5853 5852 5851 5850 5849 5849 5848
5841 5842 5844 5845 5846 5848 5849 5850 5851 5852 5852 5853 5854 5855 5855 5855 5856 5856 5857 5857 5857 5857 5857 5856 5856 5856 5855 5855 5854 5854 5853 5853 5852 5852 5851 5850 5849 5848 5847 5846 5845 5844 5843
5837 5839 5840 5842 5843 5844 5846 5847 5848 5848 5849 5850 5851 5852 5852 5852 5853 5853 5853 5854 5853 5853 5853 5853 5853 5852 5852 5851 5851 5850 5850 5849 5848 5848 5847 5846 5845 5844 5843 5842 5841 5840 5838
5833 5835 5837 5838 5839 5841 5842 5843 5844 5845 5846 5847 5848 5848 5849 5849 5850 5850 5850 5850 5850 5850 5850 5850 5849 5849 5848 5848 5847 5846 5846 5845 5844 5843 5843 5842 5841 5839 5838 5837 5836 5835 5834
5829 5831 5833 5834 5836 5837 5838 5839 5840 5842 5842 5843 5844 5845 5845 5846 5846 5846 5846 5846 5846 5846 5846 5846 5845 5845 5844 5844 5843 5842 5841 5841 5840 5839 5838 5837 5836 5834 5833 5832 5831 5830 5828
5825 5827 5828 5830 5831 5833 5834 5835 5836 5837 5838 5839 5840 5841 5841 5842 5842 5842 5842 5842 5842 5842 5842 5842 5841 5841 5840 5839 5839 5838 5837 5836 5835 5834 5833 5832 5830 5829 5828 5827 5825 5824 5822
5820 5822 5824 5825 5827 5829 5830 5831 5832 5833 5834 5835 5836 5837 5837 5838 5838 5838 5838 5838 5838 5838 5837 5837 5837 5836 5835 5835 5834 5833 5832 5831 5830 5829 5828 5826 5825 5824 5822 5821 5819 5818 5816
5815 5817 5819 5821 5822 5824 5825 5827 5828 5829 5830 5831 5832 5832 5833 5833 5833 5834 5834 5834 5833 5833 5833 5832 5832 5831 5831 5830 5829 5828 5827 5826 5825 5823 5822 5821 5819 5817 5816 5814 5812 5811 5809
5811 5813 5814 5816 5818 5819 5821 5822 5823 5824 5825 5826 5827 5828 5828 5829 5829 5829 5829 5829 5829 5828 5828 5828 5827 5826 5826 5825 5824 5823 5822 5820 5819 5817 5816 5814 5812 5810 5809 5807 5805 5803 5801
5805 5807 5809 5811 5813 5814 5816 5817 5818 5820 5821 5821 5822 5823 5824 5824 5824 5824 5824 5824 5824 5823 5823 5822 5822 5821 5820 5819 5818 5817 5815 5814 5812 5811 5809 5807 5805 5803 5801 5799 5797 5795 5793
5800 5802 5804 5806 5808 5809 5811 5812 5813 5814 5815 5816 5817 5818 5818 5819 5819 5819 5819 5819 5818 5818 5818 5817 5816 5815 5814 5813 5812 5811 5809 5807 5805 5803 5801 5799 5797 5795 5793 5791 5788 5786 5784
5794 5797 5799 5801 5802 5804 5805 5807 5808 5809 5810 5811 5812 5813 5813 5814 5814 5814 5814 5813 5813 5812 5812 5811 5810 5810 5808 5807 5806 5804 5802 5800 5798 5796 5794 5791 5789 5786 5784 5782 5779 5777 5774
5788 5791 5793 5795 5797 5799 5800 5801 5803 5804 5805 5806 5807 5807 5808 5808 5808 5808 5808 5808 5807 5807 5806 5805 5804 5803 5802 5800 5799 5797 5795 5793 5790 5788 5786 5783 5780 5777 5775 5772 5769 5766 5763
5783 5785 5787 5789 5791 5793 5794 5796 5797 5798 5799 5800 5801 5802 5802 5802 5802 5802 5802 5802 5801 5800 5800 5799 5798 5796 5795 5793 5792 5790 5787 5785 5782 5780 5777 5774 5771 5768 5765 5761 5758 5755 5752
5776 5779 5781 5783 5785 5787 5788 5790 5791 5792 5793 5794 5795 5795 5796 5796 5796 5796 5796 5795 5794 5794 5793 5792 5791 5789 5788 5786 5784 5782 5779 5777 5774 5771 5768 5764 5760 5757 5754 5750 5746 5743 5739
5770 5773 5775 5777 5779 5781 5782 5784 5785 5786 5787 5788 5789 5789 5790 5790 5790 5790 5789 5788 5788 5787 5786 5784 5783 5781 5779 5778 5776 5774 5771 5768 5765 5762 5758 5754 5750 5746 5742 5738 5734 5730 5727
5764 5767 5769 5771 5773 5775 5776 5778 5779 5780 5781 5782 5782 5783 5783 5783 5783 5783 5782 5781 5780 5779 5778 5777 5775 5773 5771 5768 5767 5765 5763 5759 5756 5752 5748 5744 5739 5735 5730 5726 5722 5718 5715
5757 5760 5763 5765 5767 5769 5770 5771 5773 5774 5775 5776 5776 5777 5776 5776 5776 5776 5775 5774 5773 5772 5770 5768 5766 5764 5762 5759 5756 5754 5752 5751 5747 5742 5737 5732 5728 5723 5719 5714 5710 5706 5702
5751 5753 5756 5758 5760 5761 5763 5764 5766 5767 5768 5769 5769 5769 5769 5769 5769 5768 5767 5766 5765 5763 5762 5760 5757 5755 5753 5750 5746 5743 5739 5737 5735 5732 5727 5722 5716 5712 5707 5702 5698 5693 5689
5743 5746 5748 5750 5752 5754 5756 5757 5758 5760 5761 5761 5762 5762 5762 5762 5761 5760 5759 5758 5756 5755 5753 5751 5748 5746 5743 5740 5736 5732 5728 5723 5720 5719 5716 5711 5705 5700 5695 5690 5685 5680 5675
5735 5738 5740 5743 5745 5747 5748 5750 5751 5752 5753 5754 5754 5754 5754 5754 5753 5752 5751 5749 5747 5746 5744 5741 5739 5736 5733 5729 5725 5721 5717 5712 5707 5703 5703 5700 5695 5689 5683 5678 5672 5667 5661
5727 5730 5732 5735 5737 5739 5740 5742 5743 5744 5745 5746 5746 5746 5746 5745 5744 5743 5742 5740 5738 5736 5734 5732 5729 5726 5722 5718 5714 5710 5705 5701 5696 5692 5689 5686 5683 5678 5672 5666 5659 5653 5648